Location: Shepherdstown, WV
(39.4326°N, 77.8042°W)
Time: 08:31:47
(UTC-04:00)

Explorer 7 - Visible Passes

Search period start: 04 August 2021 00:00
Search period end: 14 August 2021 00:00
Orbit: 484 x 676 km, 50.3° (Epoch: 04 August)

Date Brightness Start Highest point End Pass type
(mag) Time Alt. Az. Time Alt. Az. Time Alt. Az.
04 Aug 6.5 04:37:16 39° SW 04:38:33 79° SE 04:42:22 10° ENE visible
05 Aug 9.5 03:05:07 11° E 03:05:07 11° E 03:05:19 10° E visible
05 Aug 6.8 04:41:23 33° WSW 04:42:52 63° NNW 04:46:41 10° NE visible
06 Aug 9.1 03:09:12 16° E 03:09:12 16° E 03:10:14 10° ENE visible
06 Aug 7.5 04:45:28 24° W 04:47:16 40° NNW 04:50:55 10° NE visible
07 Aug 8.8 03:13:15 22° ENE 03:13:15 22° ENE 03:14:48 10° ENE visible
07 Aug 8.1 04:49:31 17° WNW 04:51:43 29° NNW 04:55:06 10° NE visible
08 Aug 8.5 03:17:16 28° NE 03:17:16 28° NE 03:19:10 10° NE visible
08 Aug 8.5 04:53:32 12° WNW 04:56:14 22° NNW 04:59:19 10° NE visible
09 Aug 8.4 03:21:15 31° NNE 03:21:15 31° NNE 03:23:27 10° NE visible
09 Aug 8.9 04:58:05 10° WNW 05:00:48 19° NNW 05:03:35 10° NE visible
10 Aug 8.4 03:25:14 30° NNE 03:25:14 30° NNE 03:27:39 10° NE visible
10 Aug 9.1 05:02:54 10° NW 05:05:24 17° N 05:07:56 10° NE visible
11 Aug 8.6 03:29:13 25° N 03:29:13 25° N 03:31:51 10° NE visible
11 Aug 9.2 05:07:36 10° NW 05:10:01 16° N 05:12:27 10° NE visible
12 Aug 8.8 03:33:11 21° NNW 03:33:11 21° NNW 03:36:04 10° NE visible
12 Aug 9.3 05:12:10 10° NW 05:14:38 16° N 05:17:08 10° NE visible
13 Aug 9.0 03:37:10 17° NNW 03:37:41 18° N 03:40:20 10° NE visible
13 Aug 9.2 05:16:33 10° NW 05:19:13 18° N 05:21:56 10° NE visible
